TimeEST,TemperatureF,Dew PointF,Humidity,Sea Level PressureIn,VisibilityMPH,Wind Direction,Wind SpeedMPH,Gust SpeedMPH,PrecipitationIn,Events,Conditions,WindDirDegrees,DateUTC
2:15 AM,32.0,26.6,80,30.09,10.0,West,8.1,-,N/A,,Clear,270,2013-02-17 07:15:00
3:15 AM,32.0,23.0,69,30.09,10.0,West,10.4,-,N/A,,Clear,270,2013-02-17 08:15:00
3:35 AM,32.0,23.0,69,30.09,10.0,West,8.1,-,N/A,,Clear,280,2013-02-17 08:35:00
7:15 AM,30.2,21.2,69,30.18,10.0,West,5.8,-,N/A,,Clear,270,2013-02-17 12:15:00
7:55 AM,32.0,21.2,64,30.20,10.0,West,6.9,-,N/A,,Clear,280,2013-02-17 12:55:00
8:15 AM,32.0,19.4,60,30.22,10.0,WNW,6.9,-,N/A,,Clear,290,2013-02-17 13:15:00
8:35 AM,32.0,19.4,60,30.22,10.0,WNW,8.1,19.6,N/A,,Clear,300,2013-02-17 13:35:00
8:55 AM,33.8,19.4,56,30.23,10.0,WNW,10.4,19.6,N/A,,Clear,300,2013-02-17 13:55:00
9:15 AM,35.6,17.6,48,30.23,10.0,NW,8.1,18.4,N/A,,Clear,310,2013-02-17 14:15:00
9:35 AM,35.6,15.8,44,30.23,10.0,WNW,11.5,18.4,N/A,,Clear,300,2013-02-17 14:35:00
9:55 AM,37.4,14.0,38,30.23,10.0,WNW,15.0,19.6,N/A,,Clear,300,2013-02-17 14:55:00
10:15 AM,37.4,14.0,38,30.24,10.0,NW,12.7,20.7,N/A,,Clear,320,2013-02-17 15:15:00
10:35 AM,41.0,15.8,36,30.25,10.0,WNW,12.7,17.3,N/A,,Clear,300,2013-02-17 15:35:00
10:55 AM,39.2,14.0,36,30.24,10.0,WNW,12.7,18.4,N/A,,Clear,300,2013-02-17 15:55:00
11:15 AM,41.0,14.0,33,30.24,10.0,West,9.2,19.6,N/A,,Clear,280,2013-02-17 16:15:00
11:35 AM,42.8,14.0,31,30.23,10.0,West,10.4,17.3,N/A,,Clear,270,2013-02-17 16:35:00
11:55 AM,41.0,12.2,31,30.23,10.0,West,11.5,19.6,N/A,,Clear,280,2013-02-17 16:55:00
12:15 PM,42.8,14.0,31,30.22,10.0,West,15.0,-,N/A,,Clear,260,2013-02-17 17:15:00
12:35 PM,44.6,14.0,29,30.22,10.0,NW,10.4,16.1,N/A,,Clear,320,2013-02-17 17:35:00
12:55 PM,42.8,14.0,31,30.22,10.0,WNW,9.2,23.0,N/A,,Clear,300,2013-02-17 17:55:00
1:15 PM,44.6,14.0,29,30.22,10.0,WNW,15.0,21.9,N/A,,Clear,290,2013-02-17 18:15:00
1:55 PM,44.6,14.0,29,30.20,10.0,NNW,15.0,23.0,N/A,,Clear,340,2013-02-17 18:55:00
2:15 PM,46.4,14.0,27,30.20,10.0,NW,15.0,20.7,N/A,,Clear,320,2013-02-17 19:15:00
2:35 PM,44.6,12.2,27,30.20,10.0,NW,11.5,21.9,N/A,,Clear,320,2013-02-17 19:35:00
2:55 PM,46.4,14.0,27,30.20,10.0,WNW,11.5,21.9,N/A,,Clear,290,2013-02-17 19:55:00
3:15 PM,46.4,14.0,27,30.19,10.0,West,8.1,-,N/A,,Clear,270,2013-02-17 20:15:00
3:35 PM,46.4,14.0,27,30.19,10.0,NW,10.4,17.3,N/A,,Clear,310,2013-02-17 20:35:00
3:55 PM,48.2,15.8,27,30.20,10.0,West,9.2,-,N/A,,Clear,270,2013-02-17 20:55:00
4:15 PM,48.2,14.0,25,30.20,10.0,West,10.4,-,N/A,,Clear,270,2013-02-17 21:15:00
4:35 PM,46.4,14.0,27,30.20,10.0,West,8.1,17.3,N/A,,Clear,280,2013-02-17 21:35:00
4:55 PM,46.4,14.0,27,30.21,10.0,NW,10.4,18.4,N/A,,Clear,320,2013-02-17 21:55:00
5:15 PM,46.4,14.0,27,30.21,10.0,WNW,6.9,-,N/A,,Clear,290,2013-02-17 22:15:00
6:15 PM,42.8,15.8,34,30.23,10.0,Calm,Calm,-,N/A,,Clear,0,2013-02-17 23:15:00
10:35 PM,30.2,26.6,86,30.31,10.0,Calm,Calm,-,N/A,,Clear,0,2013-02-18 03:35:00